Regional Weather Roundup
Issued by NWS Burlington, VT

Home | Current Version | Previous Version | Text Only | Print | Product List | Glossary On
Versions: 1 2 3 4 5 6 7 8 9 10 11 12 13 14 15 16 17 18 19 20 21 22 23 24 25 26 27 28 29 30 31 32 33 34 35 36 37 38 39 40 41 42 43 44 45 46 47 48 49 50
981
ASUS41 KBTV 180410
RWRBTV
VERMONT REGIONAL WEATHER ROUNDUP
NATIONAL WEATHER SERVICE BURLINGTON VT
1100 PM EST SUN DEC 17 2017

NOTE: "FAIR" INDICATES FEW OR NO CLOUDS BELOW 12,000 FEET WITH NO
SIGNIFICANT WEATHER AND/OR OBSTRUCTIONS TO VISIBILITY.

* THESE REPORTS ARE NOT UNDER NWS QUALITY CONTROL AND/OR DO NOT
  REPORT WEATHER SUCH AS PRECIPITATION AND FOG.

VTZ001>019-180500-
_____VERMONT_____


CITY           SKY/WX    TMP DP  RH WIND       PRES   REMARKS
BURLINGTON     CLOUDY     8   1  73 E3        30.24F
MONTPELIER     CLOUDY     3   1  91 CALM      30.22F
MORRISVILLE    CLOUDY    -4  -6  91 CALM      30.23F
ST. JOHNSBURY*   N/A      0  -2  91 MISG      30.23F
LYNDONVILLE*   FAIR       0  -4  86 CALM      30.20F
MIDDLEBURY*    FAIR       9   5  84 CALM      30.22F
RUTLAND*       CLOUDY     8   4  83 CALM      30.21F
SPRINGFIELD    CLOUDY    10   5  80 CALM      30.25S
HIGHGATE*      FAIR       1  -2  87 SE3       30.25F
NEWPORT*       FAIR      -2  -6  85 SW5       30.20F WCI -13
BENNINGTON     CLOUDY    13   7  77 CALM      30.19F
SUTTON*          N/A      1 N/A N/A MISG        N/A

_____LAKE CHAMPLAIN_____


CITY           SKY/WX    TMP DP  RH WIND       PRES   REMARKS
BURTON ISLAND*   N/A     16  10  79 S13         N/A  WCI   2
COLCHESTER RF*   N/A     16   9  73 SE10        N/A  WCI   3

$$

NYZ007-026>031-035-052-083-087-180500-
_____NORTHERN NEW YORK_____


CITY           SKY/WX    TMP DP  RH WIND       PRES   REMARKS
PLATTSBURGH    CLOUDY    11   5  77 CALM      30.24F
SARANAC LAKE   CLOUDY     5   3  91 NE5       30.06F WCI  -4
MASSENA        CLOUDY     3   1  91 CALM      30.23F
OGDENSBURG*    FAIR       8   4  86 CALM      30.19F
POTSDAM*       CLOUDY     7   0  72 E6        30.18F WCI  -3
WATERTOWN      PTCLDY     7   2  80 NE6       30.16F WCI  -3
FT DRUM        PTCLDY    10   2  70 SE10      30.13F WCI  -4
ALBANY         CLOUDY    19   9  65 NE5       30.24F WCI  12
GLENS FALLS    CLOUDY     7   4  87 CALM      30.24F

$$
NHZ002-005-011-180500-
_____NEW HAMPSHIRE_____


CITY           SKY/WX    TMP DP  RH WIND       PRES   REMARKS
LEBANON        CLOUDY     9   5  84 CALM      30.23F
KEENE          CLOUDY    12   9  87 CALM      30.24F
MT WASHINGTON  MOCLDY    10 -17  28 NW25        N/A  WCI -10
PLYMOUTH       FAIR       7   2  80 CALM      30.23F
WHITEFIELD     CLOUDY    -3  -7  82 CALM      30.19F

$$

_____REGIONAL QUEBEC LOCATIONS_____


CITY           SKY/WX    TMP DP  RH WIND       PRES   REMARKS
MONTREAL       LGT SNOW   7   3  85 E5        30.26F FOG     WCI  -2
QUEBEC CITY    PTCLDY    -9 -15  77 VRB2      30.26F
SHERBROOKE     CLEAR     -8 -13  77 E8        30.21F WCI -23

_____REGIONAL ONTARIO LOCATIONS_____


CITY           SKY/WX    TMP DP  RH WIND       PRES   REMARKS
OTTAWA         CLOUDY     5  -2  72 E3        30.20F

______KEY______
VSB  - VISIBILITY IN MILES
WCI  - WIND CHILL INDEX
HX   - HEAT INDEX
$$
NNNN




USA.gov is the U.S. government's official web portal to all federal, state and local government web resources and services.